When you browse on this site, cookies collect data to enhance your experience and personalize the content and advertising you see.
Visit our Privacy Policy to learn more. By continuing to use the site, you agree to this use of cookies and data.
  • In Österreich
  • Länderverzeichnis
  • Für 7 Tage
  • Wassertemperatur
  • Satellitenkarten
  • Wetterkarte
  • News
  • Widgets
  • user-avatar
    Anmelden

    Stündliche Wetter Mauritius

    Heute, 21 Juli, Sonntag

    Zeit Temperatur Niederschläge Wind Luftdruck Luftfeuchtigkeit
    00:00 +20°C° 0 mm 4 m/S 725 mmHg 86%
    01:00 +19°C° 0 mm 3 m/S 725 mmHg 88%
    02:00 +19°C° 0.1 mm 3 m/S 725 mmHg 88%
    03:00 +19°C° 0.1 mm 3 m/S 724 mmHg 89%
    04:00 +19°C° 0 mm 3 m/S 724 mmHg 89%
    05:00 +19°C° 0.1 mm 3 m/S 724 mmHg 89%
    06:00 +19°C° 0.1 mm 3 m/S 724 mmHg 89%
    07:00 +19°C° 0.1 mm 2 m/S 724 mmHg 89%
    08:00 +20°C° 0.1 mm 2 m/S 725 mmHg 83%
    09:00 +21°C° 0.1 mm 2 m/S 725 mmHg 77%
    10:00 +24°C° 0 mm 2 m/S 725 mmHg 70%
    11:00 +24°C° 0.1 mm 3 m/S 725 mmHg 68%
    12:00 +25°C° 0.1 mm 3 m/S 724 mmHg 65%
    13:00 +25°C° 0.1 mm 3 m/S 724 mmHg 63%
    14:00 +25°C° 0 mm 3 m/S 724 mmHg 64%
    15:00 +25°C° 0 mm 3 m/S 723 mmHg 65%
    16:00 +24°C° 0 mm 3 m/S 723 mmHg 66%
    17:00 +24°C° 0 mm 3 m/S 723 mmHg 71%
    18:00 +23°C° 0 mm 2 m/S 723 mmHg 75%
    19:00 +21°C° 0 mm 2 m/S 723 mmHg 79%
    20:00 +21°C° 0 mm 2 m/S 723 mmHg 81%
    21:00 +21°C° 0 mm 2 m/S 723 mmHg 84%
    22:00 +20°C° 0 mm 2 m/S 724 mmHg 86%
    23:00 +20°C° 0 mm 2 m/S 724 mmHg 87%

    Morgen, 22 Juli, Montag

    Zeit Temperatur Niederschläge Wind Luftdruck Luftfeuchtigkeit
    00:00 +21°C° 0 mm 1 m/S 723 mmHg 88%
    01:00 +21°C° 0 mm 1 m/S 723 mmHg 89%
    02:00 +20°C° 0 mm 1 m/S 723 mmHg 89%
    03:00 +20°C° 0 mm 1 m/S 722 mmHg 90%
    04:00 +20°C° 0 mm 1 m/S 722 mmHg 90%
    05:00 +20°C° 0 mm 1 m/S 722 mmHg 90%
    06:00 +20°C° 0 mm 1 m/S 722 mmHg 89%
    07:00 +20°C° 0 mm 1 m/S 722 mmHg 89%
    08:00 +21°C° 0 mm 1 m/S 723 mmHg 80%
    09:00 +23°C° 0 mm 1 m/S 723 mmHg 72%
    10:00 +24°C° 0 mm 2 m/S 724 mmHg 64%
    11:00 +24°C° 0.3 mm 3 m/S 724 mmHg 65%
    12:00 +23°C° 0.3 mm 5 m/S 723 mmHg 67%
    13:00 +23°C° 0.3 mm 6 m/S 723 mmHg 68%
    14:00 +21°C° 0.8 mm 7 m/S 723 mmHg 73%
    15:00 +20°C° 0.8 mm 8 m/S 723 mmHg 78%
    16:00 +18°C° 0.8 mm 10 m/S 722 mmHg 83%
    17:00 +17°C° 0.1 mm 9 m/S 723 mmHg 80%
    18:00 +17°C° 0.1 mm 9 m/S 723 mmHg 78%
    19:00 +17°C° 0.1 mm 9 m/S 724 mmHg 75%
    20:00 +17°C° 0 mm 8 m/S 724 mmHg 76%
    21:00 +17°C° 0 mm 8 m/S 724 mmHg 76%
    22:00 +17°C° 0 mm 7 m/S 724 mmHg 77%
    23:00 +16°C° 0.1 mm 7 m/S 724 mmHg 77%

    übermorgen, 23 Juli, Dienstag

    Zeit Temperatur Niederschläge Wind Luftdruck Luftfeuchtigkeit
    00:00 +16°C° 0.1 mm 7 m/S 724 mmHg 77%
    01:00 +16°C° 0.1 mm 6 m/S 724 mmHg 77%
    02:00 +16°C° 0 mm 6 m/S 724 mmHg 79%
    03:00 +16°C° 0 mm 6 m/S 723 mmHg 80%
    04:00 +16°C° 0 mm 6 m/S 723 mmHg 82%
    05:00 +16°C° 0 mm 6 m/S 723 mmHg 81%
    06:00 +17°C° 0 mm 7 m/S 723 mmHg 80%
    07:00 +17°C° 0 mm 7 m/S 724 mmHg 79%
    08:00 +17°C° 0 mm 7 m/S 724 mmHg 76%
    09:00 +18°C° 0 mm 7 m/S 724 mmHg 73%
    10:00 +20°C° 0 mm 8 m/S 725 mmHg 71%
    11:00 +20°C° 0 mm 8 m/S 724 mmHg 71%
    12:00 +20°C° 0 mm 8 m/S 724 mmHg 71%
    13:00 +21°C° 0 mm 8 m/S 724 mmHg 71%
    14:00 +20°C° 0.1 mm 8 m/S 723 mmHg 72%
    15:00 +20°C° 0.1 mm 8 m/S 723 mmHg 74%
    16:00 +20°C° 0.1 mm 8 m/S 723 mmHg 75%
    17:00 +20°C° 0.1 mm 8 m/S 723 mmHg 76%
    18:00 +18°C° 0.1 mm 8 m/S 724 mmHg 78%
    19:00 +18°C° 0.1 mm 8 m/S 724 mmHg 79%
    20:00 +18°C° 0.1 mm 8 m/S 724 mmHg 79%
    21:00 +18°C° 0.1 mm 8 m/S 724 mmHg 79%
    22:00 +18°C° 0.1 mm 8 m/S 725 mmHg 80%
    23:00 +18°C° 0.1 mm 8 m/S 724 mmHg 80%

    24 Juli, Mittwoch

    Zeit Temperatur Niederschläge Wind Luftdruck Luftfeuchtigkeit
    00:00 +17°C° 0.1 mm 8 m/S 724 mmHg 81%
    01:00 +17°C° 0.1 mm 9 m/S 724 mmHg 81%
    02:00 +17°C° 0 mm 8 m/S 724 mmHg 81%
    03:00 +17°C° 0 mm 8 m/S 724 mmHg 81%
    04:00 +17°C° 0 mm 8 m/S 723 mmHg 81%
    05:00 +17°C° 0 mm 8 m/S 724 mmHg 81%
    06:00 +17°C° 0 mm 8 m/S 724 mmHg 81%
    07:00 +17°C° 0 mm 8 m/S 724 mmHg 80%
    08:00 +18°C° 0 mm 8 m/S 725 mmHg 78%
    09:00 +18°C° 0 mm 8 m/S 725 mmHg 75%
    10:00 +20°C° 0 mm 8 m/S 725 mmHg 72%
    11:00 +20°C° 0 mm 8 m/S 725 mmHg 71%
    12:00 +21°C° 0 mm 8 m/S 724 mmHg 69%
    13:00 +21°C° 0 mm 8 m/S 724 mmHg 67%
    14:00 +21°C° 0 mm 8 m/S 724 mmHg 69%
    15:00 +21°C° 0 mm 8 m/S 723 mmHg 71%
    16:00 +21°C° 0 mm 8 m/S 723 mmHg 74%
    17:00 +20°C° 0 mm 8 m/S 723 mmHg 76%
    18:00 +20°C° 0 mm 8 m/S 724 mmHg 78%
    19:00 +20°C° 0 mm 8 m/S 724 mmHg 80%
    20:00 +20°C° 0.1 mm 8 m/S 724 mmHg 81%
    21:00 +20°C° 0.1 mm 8 m/S 724 mmHg 82%
    22:00 +20°C° 0.1 mm 7 m/S 725 mmHg 83%
    23:00 +20°C° 0.3 mm 7 m/S 724 mmHg 84%

    25 Juli, Donnerstag

    Zeit Temperatur Niederschläge Wind Luftdruck Luftfeuchtigkeit
    00:00 +20°C° 0.3 mm 7 m/S 724 mmHg 84%
    01:00 +20°C° 0.3 mm 7 m/S 724 mmHg 85%
    02:00 +20°C° 0.2 mm 6 m/S 724 mmHg 85%
    03:00 +20°C° 0.2 mm 6 m/S 724 mmHg 84%
    04:00 +20°C° 0.2 mm 6 m/S 723 mmHg 84%
    05:00 +20°C° 0.1 mm 7 m/S 724 mmHg 83%
    06:00 +20°C° 0.1 mm 7 m/S 724 mmHg 82%
    07:00 +20°C° 0.1 mm 7 m/S 725 mmHg 82%
    08:00 +21°C° 0.1 mm 8 m/S 725 mmHg 80%
    09:00 +21°C° 0.1 mm 8 m/S 725 mmHg 77%
    10:00 +22°C° 0.1 mm 8 m/S 725 mmHg 75%
    11:00 +22°C° 0.1 mm 8 m/S 725 mmHg 77%
    12:00 +21°C° 0.1 mm 9 m/S 724 mmHg 79%
    13:00 +21°C° 0.1 mm 9 m/S 724 mmHg 80%
    14:00 +21°C° 0.1 mm 9 m/S 724 mmHg 80%
    15:00 +21°C° 0.1 mm 9 m/S 724 mmHg 81%
    16:00 +21°C° 0.1 mm 8 m/S 723 mmHg 81%
    17:00 +21°C° 0 mm 8 m/S 724 mmHg 82%
    18:00 +21°C° 0 mm 8 m/S 724 mmHg 83%
    19:00 +21°C° 0 mm 8 m/S 725 mmHg 84%
    20:00 +21°C° 0.1 mm 8 m/S 725 mmHg 84%
    21:00 +21°C° 0.1 mm 8 m/S 725 mmHg 85%
    22:00 +21°C° 0.1 mm 8 m/S 725 mmHg 85%
    23:00 +21°C° 0.1 mm 8 m/S 725 mmHg 86%

    26 Juli, Freitag

    Zeit Temperatur Niederschläge Wind Luftdruck Luftfeuchtigkeit
    00:00 +21°C° 0.1 mm 8 m/S 725 mmHg 86%
    01:00 +21°C° 0.1 mm 8 m/S 725 mmHg 87%
    02:00 +21°C° 0.1 mm 7 m/S 724 mmHg 87%
    03:00 +21°C° 0.1 mm 7 m/S 724 mmHg 87%
    04:00 +21°C° 0.1 mm 7 m/S 724 mmHg 87%
    05:00 +21°C° 0.1 mm 8 m/S 724 mmHg 88%
    06:00 +21°C° 0.1 mm 8 m/S 724 mmHg 88%
    07:00 +21°C° 0.1 mm 8 m/S 725 mmHg 88%
    08:00 +21°C° 0.1 mm 8 m/S 725 mmHg 88%
    09:00 +21°C° 0.1 mm 8 m/S 725 mmHg 87%
    10:00 +21°C° 0.1 mm 9 m/S 725 mmHg 86%
    11:00 +21°C° 0.1 mm 8 m/S 725 mmHg 87%
    12:00 +21°C° 0.1 mm 8 m/S 725 mmHg 87%
    13:00 +21°C° 0.1 mm 8 m/S 724 mmHg 87%
    14:00 +21°C° 0.3 mm 8 m/S 724 mmHg 88%
    15:00 +21°C° 0.3 mm 8 m/S 724 mmHg 89%
    16:00 +21°C° 0.3 mm 8 m/S 724 mmHg 89%
    17:00 +21°C° 0.4 mm 8 m/S 724 mmHg 90%
    18:00 +21°C° 0.4 mm 7 m/S 724 mmHg 90%
    19:00 +21°C° 0.4 mm 7 m/S 725 mmHg 91%
    20:00 +21°C° 0.4 mm 7 m/S 725 mmHg 91%
    21:00 +21°C° 0.4 mm 7 m/S 725 mmHg 91%
    22:00 +21°C° 0.4 mm 7 m/S 725 mmHg 91%
    23:00 +21°C° 0.2 mm 7 m/S 725 mmHg 90%
    Mehr zeigen